Year,Month,Day,Hour,Minute,Value (Times are PST for temperature in C)
2016,11,12,00,00,11.80
2016,11,12,00,01,11.80
2016,11,12,00,02,11.80
2016,11,12,00,03,11.80
2016,11,12,00,04,11.80
2016,11,12,00,05,11.80
2016,11,12,00,06,11.80
2016,11,12,00,07,11.80
2016,11,12,00,08,11.80
2016,11,12,00,09,11.80
2016,11,12,00,10,11.80
2016,11,12,00,11,11.80
2016,11,12,00,12,11.80
2016,11,12,00,13,11.80
2016,11,12,00,14,11.80
2016,11,12,00,15,11.80
2016,11,12,00,16,11.80
2016,11,12,00,17,11.80
2016,11,12,00,18,11.80
2016,11,12,00,19,11.80
2016,11,12,00,20,11.80
2016,11,12,00,21,11.80
2016,11,12,00,22,11.80
2016,11,12,00,23,11.80
2016,11,12,00,24,11.80
2016,11,12,00,25,11.80
2016,11,12,00,26,11.80
2016,11,12,00,27,11.80
2016,11,12,00,28,11.80
2016,11,12,00,29,11.80
2016,11,12,00,30,11.80
2016,11,12,00,31,11.80
2016,11,12,00,32,11.80
2016,11,12,00,33,11.80
2016,11,12,00,34,11.80
2016,11,12,00,35,11.80
2016,11,12,00,36,11.80
2016,11,12,00,37,11.90
2016,11,12,00,38,11.90
2016,11,12,00,39,11.90
2016,11,12,00,40,11.90
2016,11,12,00,41,11.90
2016,11,12,00,42,11.90
2016,11,12,00,43,11.90
2016,11,12,00,44,11.90
2016,11,12,00,45,11.90
2016,11,12,00,46,11.90
2016,11,12,00,47,11.90
2016,11,12,00,48,11.90
2016,11,12,00,49,11.90
2016,11,12,00,50,11.90
2016,11,12,00,51,11.90
2016,11,12,00,52,11.90
2016,11,12,00,53,11.90
2016,11,12,00,54,11.90
2016,11,12,00,55,11.90
2016,11,12,00,56,11.90
2016,11,12,00,57,11.90
2016,11,12,00,58,11.90
2016,11,12,00,59,11.90
2016,11,12,01,00,11.90
2016,11,12,01,01,11.90
2016,11,12,01,02,11.90
2016,11,12,01,03,11.90
2016,11,12,01,04,11.90
2016,11,12,01,05,11.90
2016,11,12,01,06,11.90
2016,11,12,01,07,11.90
2016,11,12,01,08,11.90
2016,11,12,01,09,11.90
2016,11,12,01,10,11.90
2016,11,12,01,11,12.00
2016,11,12,01,12,12.00
2016,11,12,01,13,12.00
2016,11,12,01,14,12.00
2016,11,12,01,15,12.00
2016,11,12,01,16,12.00
2016,11,12,01,17,12.00
2016,11,12,01,18,12.00
2016,11,12,01,19,12.00
2016,11,12,01,20,12.00
2016,11,12,01,21,12.00
2016,11,12,01,22,12.00
2016,11,12,01,23,12.00
2016,11,12,01,24,12.00
2016,11,12,01,25,12.00
2016,11,12,01,26,12.00
2016,11,12,01,27,12.00
2016,11,12,01,28,12.00
2016,11,12,01,29,12.00
2016,11,12,01,30,12.00
2016,11,12,01,31,12.00
2016,11,12,01,32,12.10
2016,11,12,01,33,12.10
2016,11,12,01,34,12.10
2016,11,12,01,35,12.10
2016,11,12,01,36,12.10
2016,11,12,01,37,12.10
2016,11,12,01,38,12.10
2016,11,12,01,39,12.10
2016,11,12,01,40,12.10
2016,11,12,01,41,12.10
2016,11,12,01,42,12.10
2016,11,12,01,43,12.10
2016,11,12,01,44,12.10
2016,11,12,01,45,12.10
2016,11,12,01,46,12.10
2016,11,12,01,47,12.10
2016,11,12,01,48,12.10
2016,11,12,01,49,12.10
2016,11,12,01,50,12.10
2016,11,12,01,51,12.10
2016,11,12,01,52,12.10
2016,11,12,01,53,12.10
2016,11,12,01,54,12.10
2016,11,12,01,55,12.10
2016,11,12,01,56,12.10
2016,11,12,01,57,12.10
2016,11,12,01,58,12.10
2016,11,12,01,59,12.10
2016,11,12,02,00,12.10
2016,11,12,02,01,12.10
2016,11,12,02,02,12.10
2016,11,12,02,03,12.10
2016,11,12,02,04,12.10
2016,11,12,02,05,12.10
2016,11,12,02,06,12.10
2016,11,12,02,07,12.10
2016,11,12,02,08,12.10
2016,11,12,02,09,12.10
2016,11,12,02,10,12.10
2016,11,12,02,11,12.10
2016,11,12,02,12,12.10
2016,11,12,02,13,12.10
2016,11,12,02,14,12.10
2016,11,12,02,15,12.10
2016,11,12,02,16,12.10
2016,11,12,02,17,12.10
2016,11,12,02,18,12.10
2016,11,12,02,19,12.10
2016,11,12,02,20,12.10
2016,11,12,02,21,12.10
2016,11,12,02,22,12.10
2016,11,12,02,23,12.10
2016,11,12,02,24,12.10
2016,11,12,02,25,12.10
2016,11,12,02,26,12.10
2016,11,12,02,27,12.10
2016,11,12,02,28,12.10
2016,11,12,02,29,12.10
2016,11,12,02,30,12.10
2016,11,12,02,31,12.10
2016,11,12,02,32,12.10
2016,11,12,02,33,12.10
2016,11,12,02,34,12.10
2016,11,12,02,35,12.10
2016,11,12,02,36,12.10
2016,11,12,02,37,12.10
2016,11,12,02,38,12.10
2016,11,12,02,39,12.10
2016,11,12,02,40,12.10
2016,11,12,02,41,12.10
2016,11,12,02,42,12.10
2016,11,12,02,43,12.10
2016,11,12,02,44,12.10
2016,11,12,02,45,12.10
2016,11,12,02,46,12.10
2016,11,12,02,47,12.10
2016,11,12,02,48,12.10
2016,11,12,02,49,12.10
2016,11,12,02,50,12.10
2016,11,12,02,51,12.10
2016,11,12,02,52,12.10
2016,11,12,02,53,12.10
2016,11,12,02,54,12.00
2016,11,12,02,55,12.00
2016,11,12,02,56,12.00
2016,11,12,02,57,12.00
2016,11,12,02,58,12.00
2016,11,12,02,59,12.00
2016,11,12,03,00,12.00
2016,11,12,03,01,12.00
2016,11,12,03,02,12.00
2016,11,12,03,03,12.00
2016,11,12,03,04,12.00
2016,11,12,03,05,11.90
2016,11,12,03,06,11.90
2016,11,12,03,07,11.90
2016,11,12,03,08,11.90
2016,11,12,03,09,11.90
2016,11,12,03,10,11.90
2016,11,12,03,11,11.90
2016,11,12,03,12,11.90
2016,11,12,03,13,11.80
2016,11,12,03,14,11.80
2016,11,12,03,15,11.80
2016,11,12,03,16,11.80
2016,11,12,03,17,11.80
2016,11,12,03,18,11.80
2016,11,12,03,19,11.80
2016,11,12,03,20,11.80
2016,11,12,03,21,11.80
2016,11,12,03,22,11.80
2016,11,12,03,23,11.80
2016,11,12,03,24,11.80
2016,11,12,03,25,11.80
2016,11,12,03,26,11.80
2016,11,12,03,27,11.80
2016,11,12,03,28,11.80
2016,11,12,03,29,11.80
2016,11,12,03,30,11.80
2016,11,12,03,31,11.80
2016,11,12,03,32,11.80
2016,11,12,03,33,11.80
2016,11,12,03,34,11.80
2016,11,12,03,35,11.80
2016,11,12,03,36,11.80
2016,11,12,03,37,11.70
2016,11,12,03,38,11.70
2016,11,12,03,39,11.70
2016,11,12,03,40,11.70
2016,11,12,03,41,11.70
2016,11,12,03,42,11.70
2016,11,12,03,43,11.60
2016,11,12,03,44,11.70
2016,11,12,03,45,11.70
2016,11,12,03,46,11.70
2016,11,12,03,47,11.60
2016,11,12,03,48,11.60
2016,11,12,03,49,11.60
2016,11,12,03,50,11.60
2016,11,12,03,51,11.60
2016,11,12,03,52,11.60
2016,11,12,03,53,11.60
2016,11,12,03,54,11.60
2016,11,12,03,55,11.60
2016,11,12,03,56,11.50
2016,11,12,03,57,11.40
2016,11,12,03,58,11.40
2016,11,12,03,59,11.40
2016,11,12,04,00,11.40
2016,11,12,04,01,11.40
2016,11,12,04,02,11.40
2016,11,12,04,03,11.40
2016,11,12,04,04,11.40
2016,11,12,04,05,11.40
2016,11,12,04,06,11.40
2016,11,12,04,07,11.30
2016,11,12,04,08,11.30
2016,11,12,04,09,11.30
2016,11,12,04,10,11.30
2016,11,12,04,11,11.30
2016,11,12,04,12,11.30
2016,11,12,04,13,11.30
2016,11,12,04,14,11.30
2016,11,12,04,15,11.30
2016,11,12,04,16,11.30
2016,11,12,04,17,11.30
2016,11,12,04,18,11.30
2016,11,12,04,19,11.30
2016,11,12,04,20,11.30
2016,11,12,04,21,11.30
2016,11,12,04,22,11.30
2016,11,12,04,23,11.30
2016,11,12,04,24,11.20
2016,11,12,04,25,11.20
2016,11,12,04,26,11.20
2016,11,12,04,27,11.20
2016,11,12,04,28,11.20
2016,11,12,04,29,11.20
2016,11,12,04,30,11.20
2016,11,12,04,31,11.20
2016,11,12,04,32,11.20
2016,11,12,04,33,11.20
2016,11,12,04,34,11.10
2016,11,12,04,35,11.10
2016,11,12,04,36,11.10
2016,11,12,04,37,11.10
2016,11,12,04,38,11.10
2016,11,12,04,39,11.10
2016,11,12,04,40,11.10
2016,11,12,04,41,11.00
2016,11,12,04,42,10.90
2016,11,12,04,43,10.90
2016,11,12,04,44,10.90
2016,11,12,04,45,10.90
2016,11,12,04,46,10.90
2016,11,12,04,47,10.90
2016,11,12,04,48,10.90
2016,11,12,04,49,10.90
2016,11,12,04,50,10.90
2016,11,12,04,51,10.90
2016,11,12,04,52,10.80
2016,11,12,04,53,10.80
2016,11,12,04,54,10.80
2016,11,12,04,55,10.80
2016,11,12,04,56,10.80
2016,11,12,04,57,10.80
2016,11,12,04,58,10.80
2016,11,12,04,59,10.80
2016,11,12,05,00,10.70
2016,11,12,05,01,10.70
2016,11,12,05,02,10.70
2016,11,12,05,03,10.70
2016,11,12,05,04,10.70
2016,11,12,05,05,10.70
2016,11,12,05,06,10.70
2016,11,12,05,07,10.60
2016,11,12,05,08,10.60
2016,11,12,05,09,10.60
2016,11,12,05,10,10.60
2016,11,12,05,11,10.60
2016,11,12,05,12,10.60
2016,11,12,05,13,10.60
2016,11,12,05,14,10.60
2016,11,12,05,15,10.60
2016,11,12,05,16,10.60
2016,11,12,05,17,10.60
2016,11,12,05,18,10.60
2016,11,12,05,19,10.60
2016,11,12,05,20,10.60
2016,11,12,05,21,10.60
2016,11,12,05,22,10.60
2016,11,12,05,23,10.60
2016,11,12,05,24,10.60
2016,11,12,05,25,10.60
2016,11,12,05,26,10.60
2016,11,12,05,27,10.60
2016,11,12,05,28,10.60
2016,11,12,05,29,10.60
2016,11,12,05,30,10.60
2016,11,12,05,31,10.60
2016,11,12,05,32,10.60
2016,11,12,05,33,10.60
2016,11,12,05,34,10.60
2016,11,12,05,35,10.60
2016,11,12,05,36,10.60
2016,11,12,05,37,10.60
2016,11,12,05,38,10.60
2016,11,12,05,39,10.60
2016,11,12,05,40,10.60
2016,11,12,05,41,10.60
2016,11,12,05,42,10.60
2016,11,12,05,43,10.60
2016,11,12,05,44,10.60
2016,11,12,05,45,10.60
2016,11,12,05,46,10.60
2016,11,12,05,47,10.60
2016,11,12,05,48,10.70
2016,11,12,05,49,10.70
2016,11,12,05,50,10.80
2016,11,12,05,51,10.80
2016,11,12,05,52,10.80
2016,11,12,05,53,10.80
2016,11,12,05,54,10.90
2016,11,12,05,55,10.90
2016,11,12,05,56,10.90
2016,11,12,05,57,10.80
2016,11,12,05,58,10.80
2016,11,12,05,59,10.70
2016,11,12,06,00,10.70
2016,11,12,06,01,10.70
2016,11,12,06,02,10.70
2016,11,12,06,03,10.60
2016,11,12,06,04,10.60
2016,11,12,06,05,10.60
2016,11,12,06,06,10.60
2016,11,12,06,07,10.60
2016,11,12,06,08,10.60
2016,11,12,06,09,10.60
2016,11,12,06,10,10.60
2016,11,12,06,11,10.60
2016,11,12,06,12,10.60
2016,11,12,06,13,10.70
2016,11,12,06,14,10.70
2016,11,12,06,15,10.90
2016,11,12,06,16,10.90
2016,11,12,06,17,10.90
2016,11,12,06,18,10.90
2016,11,12,06,19,10.90
2016,11,12,06,20,10.90
2016,11,12,06,21,10.90
2016,11,12,06,22,10.90
2016,11,12,06,23,10.90
2016,11,12,06,24,10.90
2016,11,12,06,25,10.90
2016,11,12,06,26,10.90
2016,11,12,06,27,10.90
2016,11,12,06,28,10.90
2016,11,12,06,29,10.90
2016,11,12,06,30,10.90
2016,11,12,06,31,10.90
2016,11,12,06,32,10.90
2016,11,12,06,33,10.90
2016,11,12,06,34,10.90
2016,11,12,06,35,10.90
2016,11,12,06,36,10.90
2016,11,12,06,37,10.90
2016,11,12,06,38,10.90
2016,11,12,06,39,10.90
2016,11,12,06,40,10.90
2016,11,12,06,41,10.90
2016,11,12,06,42,10.90
2016,11,12,06,43,11.00
2016,11,12,06,44,11.00
2016,11,12,06,45,10.90
2016,11,12,06,46,10.90
2016,11,12,06,47,10.90
2016,11,12,06,48,10.90
2016,11,12,06,49,10.90
2016,11,12,06,50,10.90
2016,11,12,06,51,10.80
2016,11,12,06,52,10.80
2016,11,12,06,53,10.80
2016,11,12,06,54,10.90
2016,11,12,06,55,10.90
2016,11,12,06,56,10.90
2016,11,12,06,57,10.90
2016,11,12,06,58,10.90
2016,11,12,06,59,10.90
2016,11,12,07,00,10.90
2016,11,12,07,01,10.90
2016,11,12,07,02,10.90
2016,11,12,07,03,10.90
2016,11,12,07,04,10.90
2016,11,12,07,05,10.90
2016,11,12,07,06,10.90
2016,11,12,07,07,10.90
2016,11,12,07,08,10.90
2016,11,12,07,09,10.90
2016,11,12,07,10,10.90
2016,11,12,07,11,10.90
2016,11,12,07,12,10.90
2016,11,12,07,13,10.90
2016,11,12,07,14,10.90
2016,11,12,07,15,10.90
2016,11,12,07,16,10.90
2016,11,12,07,17,10.90
2016,11,12,07,18,10.90
2016,11,12,07,19,10.90
2016,11,12,07,20,10.80
2016,11,12,07,21,10.80
2016,11,12,07,22,10.80
2016,11,12,07,23,10.80
2016,11,12,07,24,10.90
2016,11,12,07,25,10.90
2016,11,12,07,26,10.90
2016,11,12,07,27,10.90
2016,11,12,07,28,10.90
2016,11,12,07,29,10.90
2016,11,12,07,30,10.90
2016,11,12,07,31,10.90
2016,11,12,07,32,10.90
2016,11,12,07,33,10.90
2016,11,12,07,34,10.90
2016,11,12,07,35,10.90
2016,11,12,07,36,10.90
2016,11,12,07,37,10.90
2016,11,12,07,38,10.90
2016,11,12,07,39,10.90
2016,11,12,07,40,10.90
2016,11,12,07,41,10.90
2016,11,12,07,42,10.90
2016,11,12,07,43,10.90
2016,11,12,07,44,10.90
2016,11,12,07,45,10.90
2016,11,12,07,46,11.00
2016,11,12,07,47,11.10
2016,11,12,07,48,11.10
2016,11,12,07,49,11.10
2016,11,12,07,50,11.10
2016,11,12,07,51,11.10
2016,11,12,07,52,11.10
2016,11,12,07,53,11.10
2016,11,12,07,54,11.10
2016,11,12,07,55,11.10
2016,11,12,07,56,11.10
2016,11,12,07,57,11.10
2016,11,12,07,58,11.10
2016,11,12,07,59,11.10
2016,11,12,08,00,11.10
2016,11,12,08,01,11.20
2016,11,12,08,02,11.20
2016,11,12,08,03,11.20
2016,11,12,08,04,11.20
2016,11,12,08,05,11.20
2016,11,12,08,06,11.20
2016,11,12,08,07,11.20
2016,11,12,08,08,11.20
2016,11,12,08,09,11.20
2016,11,12,08,10,11.20
2016,11,12,08,11,11.20
2016,11,12,08,12,11.20
2016,11,12,08,13,11.20
2016,11,12,08,14,11.20
2016,11,12,08,15,11.20
2016,11,12,08,16,11.20
2016,11,12,08,17,11.30
2016,11,12,08,18,11.30
2016,11,12,08,19,11.30
2016,11,12,08,20,11.30
2016,11,12,08,21,11.40
2016,11,12,08,22,11.40
2016,11,12,08,23,11.40
2016,11,12,08,24,11.40
2016,11,12,08,25,11.40
2016,11,12,08,26,11.40
2016,11,12,08,27,11.50
2016,11,12,08,28,11.60
2016,11,12,08,29,11.60
2016,11,12,08,30,11.60
2016,11,12,08,31,11.60
2016,11,12,08,32,11.60
2016,11,12,08,33,11.60
2016,11,12,08,34,11.60
2016,11,12,08,35,11.60
2016,11,12,08,36,11.60
2016,11,12,08,37,11.60
2016,11,12,08,38,11.60
2016,11,12,08,39,11.60
2016,11,12,08,40,11.60
2016,11,12,08,41,11.60
2016,11,12,08,42,11.60
2016,11,12,08,43,11.60
2016,11,12,08,44,11.60
2016,11,12,08,45,11.60
2016,11,12,08,46,11.60
2016,11,12,08,47,11.60
2016,11,12,08,48,11.60
2016,11,12,08,49,11.60
2016,11,12,08,50,11.60
2016,11,12,08,51,11.60
2016,11,12,08,52,11.60
2016,11,12,08,53,11.60
2016,11,12,08,54,11.60
2016,11,12,08,55,11.60
2016,11,12,08,56,11.60
2016,11,12,08,57,11.70
2016,11,12,08,58,11.70
2016,11,12,08,59,11.70
2016,11,12,09,00,11.70
2016,11,12,09,01,11.70
2016,11,12,09,02,11.70
2016,11,12,09,03,11.70
2016,11,12,09,04,11.70
2016,11,12,09,05,11.70
2016,11,12,09,06,11.60
2016,11,12,09,07,11.60
2016,11,12,09,08,11.60
2016,11,12,09,09,11.60
2016,11,12,09,10,11.60
2016,11,12,09,11,11.60
2016,11,12,09,12,11.60
2016,11,12,09,13,11.60
2016,11,12,09,14,11.60
2016,11,12,09,15,11.60
2016,11,12,09,16,11.60
2016,11,12,09,17,11.60
2016,11,12,09,18,11.60
2016,11,12,09,19,11.60
2016,11,12,09,20,11.60
2016,11,12,09,21,11.60
2016,11,12,09,22,11.60
2016,11,12,09,23,11.60
2016,11,12,09,24,11.70
2016,11,12,09,25,11.70
2016,11,12,09,26,11.70
2016,11,12,09,27,11.70
2016,11,12,09,28,11.70
2016,11,12,09,29,11.70
2016,11,12,09,30,11.70
2016,11,12,09,31,11.80
2016,11,12,09,32,11.80
2016,11,12,09,33,11.80
2016,11,12,09,34,11.80
2016,11,12,09,35,11.80
2016,11,12,09,36,11.80
2016,11,12,09,37,11.80
2016,11,12,09,38,11.90
2016,11,12,09,39,11.90
2016,11,12,09,40,11.90
2016,11,12,09,41,12.00
2016,11,12,09,42,12.00
2016,11,12,09,43,12.00
2016,11,12,09,44,12.10
2016,11,12,09,45,12.10
2016,11,12,09,46,12.10
2016,11,12,09,47,12.20
2016,11,12,09,48,12.20
2016,11,12,09,49,12.20
2016,11,12,09,50,12.20
2016,11,12,09,51,12.30
2016,11,12,09,52,12.30
2016,11,12,09,53,12.30
2016,11,12,09,54,12.30
2016,11,12,09,55,12.30
2016,11,12,09,56,12.30
2016,11,12,09,57,12.30
2016,11,12,09,58,12.30
2016,11,12,09,59,12.30
2016,11,12,10,00,12.30
2016,11,12,10,01,12.30
2016,11,12,10,02,12.30
2016,11,12,10,03,12.30
2016,11,12,10,04,12.30
2016,11,12,10,05,12.30
2016,11,12,10,06,12.30
2016,11,12,10,07,12.30
2016,11,12,10,08,12.30
2016,11,12,10,09,12.30
2016,11,12,10,10,12.30
2016,11,12,10,11,12.40
2016,11,12,10,12,12.40
2016,11,12,10,13,12.40
2016,11,12,10,14,12.40
2016,11,12,10,15,12.40
2016,11,12,10,16,12.40
2016,11,12,10,17,12.40
2016,11,12,10,18,12.40
2016,11,12,10,19,12.50
2016,11,12,10,20,12.50
2016,11,12,10,21,12.50
2016,11,12,10,22,12.50
2016,11,12,10,23,12.50
2016,11,12,10,24,12.50
2016,11,12,10,25,12.50
2016,11,12,10,26,12.50
2016,11,12,10,27,12.50
2016,11,12,10,28,12.60
2016,11,12,10,29,12.60
2016,11,12,10,30,12.60
2016,11,12,10,31,12.60
2016,11,12,10,32,12.60
2016,11,12,10,33,12.70
2016,11,12,10,34,12.70
2016,11,12,10,35,12.70
2016,11,12,10,36,12.80
2016,11,12,10,37,12.80
2016,11,12,10,38,12.80
2016,11,12,10,39,12.80
2016,11,12,10,40,12.80
2016,11,12,10,41,12.90
2016,11,12,10,42,12.90
2016,11,12,10,43,12.90
2016,11,12,10,44,13.00
2016,11,12,10,45,13.00
2016,11,12,10,46,13.00
2016,11,12,10,47,13.00
2016,11,12,10,48,13.00
2016,11,12,10,49,13.00
2016,11,12,10,50,13.10
2016,11,12,10,51,13.10
2016,11,12,10,52,13.10
2016,11,12,10,53,13.10
2016,11,12,10,54,13.10
2016,11,12,10,55,13.10
2016,11,12,10,56,13.10
2016,11,12,10,57,13.20
2016,11,12,10,58,13.20
2016,11,12,10,59,13.20
2016,11,12,11,00,13.20
2016,11,12,11,01,13.20
2016,11,12,11,02,13.20
2016,11,12,11,03,13.20
2016,11,12,11,04,13.20
2016,11,12,11,05,13.30
2016,11,12,11,06,13.30
2016,11,12,11,07,13.30
2016,11,12,11,08,13.40
2016,11,12,11,09,13.40
2016,11,12,11,10,13.40
2016,11,12,11,11,13.40
2016,11,12,11,12,13.40
2016,11,12,11,13,13.50
2016,11,12,11,14,13.50
2016,11,12,11,15,13.50
2016,11,12,11,16,13.60
2016,11,12,11,17,13.50
2016,11,12,11,18,13.40
2016,11,12,11,19,13.30
2016,11,12,11,20,13.30
2016,11,12,11,21,13.30
2016,11,12,11,22,13.30
2016,11,12,11,23,13.20
2016,11,12,11,24,13.10
2016,11,12,11,25,13.00
2016,11,12,11,26,13.00
2016,11,12,11,27,12.90
2016,11,12,11,28,12.90
2016,11,12,11,29,12.90
2016,11,12,11,30,13.00
2016,11,12,11,31,13.00
2016,11,12,11,32,13.00
2016,11,12,11,33,13.00
2016,11,12,11,34,13.10
2016,11,12,11,35,13.20
2016,11,12,11,36,13.20
2016,11,12,11,37,13.30
2016,11,12,11,38,13.30
2016,11,12,11,39,13.30
2016,11,12,11,40,13.30
2016,11,12,11,41,13.30
2016,11,12,11,42,13.30
2016,11,12,11,43,13.30
2016,11,12,11,44,13.30
2016,11,12,11,45,13.30
2016,11,12,11,46,13.30
2016,11,12,11,47,13.30
2016,11,12,11,48,13.30
2016,11,12,11,49,13.30
2016,11,12,11,50,13.40
2016,11,12,11,51,13.30
2016,11,12,11,52,13.40
2016,11,12,11,53,13.50
2016,11,12,11,54,13.50
2016,11,12,11,55,13.50
2016,11,12,11,56,13.50
2016,11,12,11,57,13.40
2016,11,12,11,58,13.40
2016,11,12,11,59,13.40
2016,11,12,12,00,13.40
2016,11,12,12,01,13.30
2016,11,12,12,02,13.30
2016,11,12,12,03,13.30
2016,11,12,12,04,13.30
2016,11,12,12,05,13.30
2016,11,12,12,06,13.30
2016,11,12,12,07,13.30
2016,11,12,12,08,13.30
2016,11,12,12,09,13.40
2016,11,12,12,10,13.40
2016,11,12,12,11,13.40
2016,11,12,12,12,13.40
2016,11,12,12,13,13.30
2016,11,12,12,14,13.30
2016,11,12,12,15,13.30
2016,11,12,12,16,13.20
2016,11,12,12,17,13.10
2016,11,12,12,18,13.10
2016,11,12,12,19,13.00
2016,11,12,12,20,12.90
2016,11,12,12,21,12.90
2016,11,12,12,22,12.80
2016,11,12,12,23,12.80
2016,11,12,12,24,12.80
2016,11,12,12,25,12.80
2016,11,12,12,26,12.80
2016,11,12,12,27,12.80
2016,11,12,12,28,12.90
2016,11,12,12,29,12.90
2016,11,12,12,30,13.00
2016,11,12,12,31,13.10
2016,11,12,12,32,13.20
2016,11,12,12,33,13.20
2016,11,12,12,34,13.30
2016,11,12,12,35,13.30
2016,11,12,12,36,13.30
2016,11,12,12,37,13.40
2016,11,12,12,38,13.40
2016,11,12,12,39,13.40
2016,11,12,12,40,13.50
2016,11,12,12,41,13.50
2016,11,12,12,42,13.50
2016,11,12,12,43,13.50
2016,11,12,12,44,13.50
2016,11,12,12,45,13.50
2016,11,12,12,46,13.60
2016,11,12,12,47,13.60
2016,11,12,12,48,13.50
2016,11,12,12,49,13.50
2016,11,12,12,50,13.60
2016,11,12,12,51,13.60
2016,11,12,12,52,13.70
2016,11,12,12,53,13.70
2016,11,12,12,54,13.70
2016,11,12,12,55,13.70
2016,11,12,12,56,13.70
2016,11,12,12,57,13.70
2016,11,12,12,58,13.70
2016,11,12,12,59,13.70
2016,11,12,13,00,13.70
2016,11,12,13,01,13.70
2016,11,12,13,02,13.70
2016,11,12,13,03,13.70
2016,11,12,13,04,13.70
2016,11,12,13,05,13.70
2016,11,12,13,06,13.70
2016,11,12,13,07,13.70
2016,11,12,13,08,13.70
2016,11,12,13,09,13.70
2016,11,12,13,10,13.70
2016,11,12,13,11,13.70
2016,11,12,13,12,13.70
2016,11,12,13,13,13.70
2016,11,12,13,14,13.70
2016,11,12,13,15,13.70
2016,11,12,13,16,13.70
2016,11,12,13,17,13.70
2016,11,12,13,18,13.80
2016,11,12,13,19,13.80
2016,11,12,13,20,13.80
2016,11,12,13,21,13.80
2016,11,12,13,22,13.70
2016,11,12,13,23,13.70
2016,11,12,13,24,13.80
2016,11,12,13,25,13.80
2016,11,12,13,26,13.80
2016,11,12,13,27,13.80
2016,11,12,13,28,13.90
2016,11,12,13,29,13.90
2016,11,12,13,30,13.90
2016,11,12,13,31,13.80
2016,11,12,13,32,13.80
2016,11,12,13,33,13.80
2016,11,12,13,34,13.80
2016,11,12,13,35,13.80
2016,11,12,13,36,13.80
2016,11,12,13,37,13.70
2016,11,12,13,38,13.70
2016,11,12,13,39,13.70
2016,11,12,13,40,13.70
2016,11,12,13,41,13.70
2016,11,12,13,42,13.70
2016,11,12,13,43,13.70
2016,11,12,13,44,13.70
2016,11,12,13,45,13.60
2016,11,12,13,46,13.60
2016,11,12,13,47,13.60
2016,11,12,13,48,13.50
2016,11,12,13,49,13.50
2016,11,12,13,50,13.50
2016,11,12,13,51,13.40
2016,11,12,13,52,13.40
2016,11,12,13,53,13.40
2016,11,12,13,54,13.30
2016,11,12,13,55,13.30
2016,11,12,13,56,13.30
2016,11,12,13,57,13.30
2016,11,12,13,58,13.30
2016,11,12,13,59,13.30
2016,11,12,14,00,13.30
2016,11,12,14,01,13.30
2016,11,12,14,02,13.30
2016,11,12,14,03,13.30
2016,11,12,14,04,13.20
2016,11,12,14,05,13.20
2016,11,12,14,06,13.20
2016,11,12,14,07,13.30
2016,11,12,14,08,13.30
2016,11,12,14,09,13.30
2016,11,12,14,10,13.30
2016,11,12,14,11,13.30
2016,11,12,14,12,13.30
2016,11,12,14,13,13.30
2016,11,12,14,14,13.20
2016,11,12,14,15,13.20
2016,11,12,14,16,13.20
2016,11,12,14,17,13.30
2016,11,12,14,18,13.30
2016,11,12,14,19,13.30
2016,11,12,14,20,13.30
2016,11,12,14,21,13.30
2016,11,12,14,22,13.30
2016,11,12,14,23,13.30
2016,11,12,14,24,13.30
2016,11,12,14,25,13.30
2016,11,12,14,26,13.30
2016,11,12,14,27,13.30
2016,11,12,14,28,13.30
2016,11,12,14,29,13.40
2016,11,12,14,30,13.40
2016,11,12,14,31,13.40
2016,11,12,14,32,13.40
2016,11,12,14,33,13.50
2016,11,12,14,34,13.50
2016,11,12,14,35,13.60
2016,11,12,14,36,13.60
2016,11,12,14,37,13.60
2016,11,12,14,38,13.70
2016,11,12,14,39,13.70
2016,11,12,14,40,13.70
2016,11,12,14,41,13.70
2016,11,12,14,42,13.80
2016,11,12,14,43,13.80
2016,11,12,14,44,13.80
2016,11,12,14,45,13.80
2016,11,12,14,46,13.80
2016,11,12,14,47,13.80
2016,11,12,14,48,13.80
2016,11,12,14,49,13.70
2016,11,12,14,50,13.70
2016,11,12,14,51,13.70
2016,11,12,14,52,13.70
2016,11,12,14,53,13.70
2016,11,12,14,54,13.60
2016,11,12,14,55,13.60
2016,11,12,14,56,13.60
2016,11,12,14,57,13.60
2016,11,12,14,58,13.60
2016,11,12,14,59,13.60
2016,11,12,15,00,13.60
2016,11,12,15,01,13.50
2016,11,12,15,02,13.50
2016,11,12,15,03,13.40
2016,11,12,15,04,13.40
2016,11,12,15,05,13.30
2016,11,12,15,06,13.40
2016,11,12,15,07,13.40
2016,11,12,15,08,13.40
2016,11,12,15,09,13.40
2016,11,12,15,10,13.40
2016,11,12,15,11,13.50
2016,11,12,15,12,13.50
2016,11,12,15,13,13.50
2016,11,12,15,14,13.50
2016,11,12,15,15,13.50
2016,11,12,15,16,13.50
2016,11,12,15,17,13.50
2016,11,12,15,18,13.50
2016,11,12,15,19,13.50
2016,11,12,15,20,13.50
2016,11,12,15,21,13.50
2016,11,12,15,22,13.60
2016,11,12,15,23,13.60
2016,11,12,15,24,13.50
2016,11,12,15,25,13.50
2016,11,12,15,26,13.50
2016,11,12,15,27,13.50
2016,11,12,15,28,13.50
2016,11,12,15,29,13.50
2016,11,12,15,30,13.50
2016,11,12,15,31,13.50
2016,11,12,15,32,13.50
2016,11,12,15,33,13.50
2016,11,12,15,34,13.50
2016,11,12,15,35,13.50
2016,11,12,15,36,13.50
2016,11,12,15,37,13.50
2016,11,12,15,38,13.50
2016,11,12,15,39,13.50
2016,11,12,15,40,13.50
2016,11,12,15,41,13.40
2016,11,12,15,42,13.40
2016,11,12,15,43,13.40
2016,11,12,15,44,13.40
2016,11,12,15,45,13.30
2016,11,12,15,46,13.30
2016,11,12,15,47,13.30
2016,11,12,15,48,13.30
2016,11,12,15,49,13.30
2016,11,12,15,50,13.30
2016,11,12,15,51,13.30
2016,11,12,15,52,13.20
2016,11,12,15,53,13.20
2016,11,12,15,54,13.10
2016,11,12,15,55,13.10
2016,11,12,15,56,13.10
2016,11,12,15,57,13.00
2016,11,12,15,58,13.00
2016,11,12,15,59,12.90
2016,11,12,16,00,12.90
2016,11,12,16,01,12.80
2016,11,12,16,02,12.80
2016,11,12,16,03,12.80
2016,11,12,16,04,12.80
2016,11,12,16,05,12.80
2016,11,12,16,06,12.80
2016,11,12,16,07,12.80
2016,11,12,16,08,12.70
2016,11,12,16,09,12.70
2016,11,12,16,10,12.70
2016,11,12,16,11,12.70
2016,11,12,16,12,12.60
2016,11,12,16,13,12.60
2016,11,12,16,14,12.60
2016,11,12,16,15,12.60
2016,11,12,16,16,12.50
2016,11,12,16,17,12.50
2016,11,12,16,18,12.50
2016,11,12,16,19,12.50
2016,11,12,16,20,12.40
2016,11,12,16,21,12.40
2016,11,12,16,22,12.40
2016,11,12,16,23,12.40
2016,11,12,16,24,12.40
2016,11,12,16,25,12.30
2016,11,12,16,26,12.30
2016,11,12,16,27,12.30
2016,11,12,16,28,12.30
2016,11,12,16,29,12.30
2016,11,12,16,30,12.30
2016,11,12,16,31,12.30
2016,11,12,16,32,12.30
2016,11,12,16,33,12.30
2016,11,12,16,34,12.30
2016,11,12,16,35,12.30
2016,11,12,16,36,12.30
2016,11,12,16,37,12.20
2016,11,12,16,38,12.20
2016,11,12,16,39,12.20
2016,11,12,16,40,12.20
2016,11,12,16,41,12.20
2016,11,12,16,42,12.10
2016,11,12,16,43,12.10
2016,11,12,16,44,12.10
2016,11,12,16,45,12.10
2016,11,12,16,46,12.10
2016,11,12,16,47,12.10
2016,11,12,16,48,12.00
2016,11,12,16,49,12.00
2016,11,12,16,50,12.00
2016,11,12,16,51,12.00
2016,11,12,16,52,12.10
2016,11,12,16,53,12.10
2016,11,12,16,54,12.10
2016,11,12,16,55,12.10
2016,11,12,16,56,12.10
2016,11,12,16,57,12.10
2016,11,12,16,58,12.10
2016,11,12,16,59,12.10
2016,11,12,17,00,12.10
2016,11,12,17,01,12.10
2016,11,12,17,02,12.10
2016,11,12,17,03,12.10
2016,11,12,17,04,12.10
2016,11,12,17,05,12.10
2016,11,12,17,06,12.10
2016,11,12,17,07,12.10
2016,11,12,17,08,12.10
2016,11,12,17,09,12.00
2016,11,12,17,10,12.00
2016,11,12,17,11,12.00
2016,11,12,17,12,12.00
2016,11,12,17,13,12.00
2016,11,12,17,14,12.00
2016,11,12,17,15,12.00
2016,11,12,17,16,12.00
2016,11,12,17,17,12.00
2016,11,12,17,18,12.00
2016,11,12,17,19,12.00